Flag for U.S.A. Weather past 2 weeks in Atascadero, California, U.S.A.

Now
76 °F

Sunny.


Feels Like: 77 °F
Forecast: 47 / 72 °F
Wind: No wind

Location: Paso Robles Municipal Airport

Current Time: May 24, 2015 at 2:34:48 PM

Latest Report: May 24, 2015 at 1:53 PM


Visibility: 10 mi

Pressure: 29.95 "Hg

Humidity: 33%

Dew point: 45 °F

Location of AtascaderoLocation

Historic Weather in Atascadero — Graph

°F

Atascadero temperature yesterday

Maximum temperature yesterday: 74 °F (at 2:53 PM)
Minimum temperature yesterday: 51 °F (at 3:53 AM)
Average temperature yesterday: 60 °F

Past Weeks' High & Low Weather Summary

 TemperatureHumidityPressure
High86 °F (May 10, 2:53 PM)93% (May 10, 4:53 AM)30.11 "Hg (May 10, 4:53 AM)
Low42 °F (May 12, 6:53 AM)14% (May 12, 2:53 PM)29.78 "Hg (May 14, 4:53 PM)
Average59 °F63%29.96 "Hg
* Reported May 9 12:53 PM — May 24 12:53 PM, Atascadero, Weather by CustomWeather, © 2015

Note: Actual official high and low records may vary slightly from our data, if they occured in-between our weather recording intervals... More about our weather records

Advertising

Atascadero weather history for previous 24 hours

 ConditionsComfort  
Time TempWeatherWind HumidityBarometerVisibility
12:53 PM
Sun, May 24
75 °FSunny.7 mph37%29.98 "Hg10 mi
11:53 AM69 °FSunny.6 mph45%30.00 "Hg10 mi
10:53 AM65 °FSunny.5 mph51%30.02 "Hg10 mi
9:53 AM60 °FSunny.3 mph62%30.04 "Hg10 mi
8:53 AM56 °FScattered clouds.3 mph72%30.05 "Hg10 mi
7:53 AM53 °FPassing clouds.7 mph77%30.05 "Hg10 mi
7:01 AM50 °FPartly sunny.No wind80%30.05 "Hg10 mi
5:53 AM50 °FOvercast.5 mph83%30.03 "Hg10 mi
4:53 AM50 °FOvercast.3 mph83%30.02 "Hg10 mi
3:53 AM50 °FClear.N/A86%30.01 "Hg10 mi
2:53 AM52 °FPassing clouds.10 mph80%30.01 "Hg10 mi
1:53 AM52 °FOvercast.9 mph80%30.02 "Hg10 mi
12:53 AM52 °FOvercast.14 mph80%30.02 "Hg10 mi
11:53 PM
Sat, May 23
52 °FClear.14 mph77%30.03 "Hg10 mi
10:53 PM53 °FClear.10 mph74%30.04 "Hg10 mi
9:53 PM54 °FClear.13 mph72%30.04 "Hg10 mi
8:53 PM57 °FSunny.14 mph67%30.02 "Hg10 mi
7:53 PM61 °FPartly sunny.12 mph60%30.00 "Hg10 mi
6:53 PM67 °FSunny.13 mph51%29.98 "Hg10 mi
5:53 PM67 °FSunny.15 mph53%29.97 "Hg10 mi
4:53 PM70 °FSunny.18 mph46%29.98 "Hg10 mi
3:53 PM72 °FSunny.16 mph44%29.99 "Hg10 mi
2:53 PM74 °FSunny.14 mph43%30.00 "Hg10 mi
Weather by CustomWeather, © 2015

See weather overviewHow to use our weather pages